EW0427 Weather Reports


time (UTC)temp
F
wind
direction
speed
knots
gust
knots
rain 1hr
in
rain 24hr
in
rain mn
in
humidity
%
barometer
mb
20260508034537 40 0 0.0 1.7 0.00 0.00 0.00 81 1013.6
20260508033038 40 0 0.0 0.0 0.00 0.00 0.00 79 1013.5
20260508031537 40 0 0.0 0.0 0.00 0.00 0.00 78 1013.6
20260508030044 41 0 0.0 0.0 0.00 0.00 0.00 76 1013.6
20260508024540 41 0 0.0 0.9 0.00 0.00 0.00 75 1013.8
20260508023037 42 0 0.0 0.0 0.00 0.00 0.00 72 1013.7
20260508021541 43 0 0.0 0.0 0.00 0.00 0.00 69 1013.6
20260508020045 44 0 0.0 1.7 0.00 0.00 0.00 67 1013.6
20260508014539 45 0 0.0 0.0 0.00 0.00 0.00 66 1013.6
20260508013046 46 0 0.0 0.0 0.00 0.00 0.00 63 1013.4
20260508011544 47 283 0.9 1.7 0.00 0.00 0.00 58 1013.4
20260508010038 47 283 0.9 3.5 0.00 0.00 0.00 57 1013.4
20260508004537 48 283 1.7 6.1 0.00 0.00 0.00 56 1013.2
20260508003037 49 278 3.5 7.0 0.00 0.00 0.00 54 1013.2
20260508001601 49 294 5.2 10.4 0.00 0.00 0.00 53 1013.0
20260508000046 50 294 7.8 13.0 0.00 0.00 0.00 51 1012.8
20260507234541 51 312 8.7 16.5 0.00 0.00 0.00 50 1012.7
20260507233038 51 258 10.4 16.5 0.00 0.00 0.00 49 1012.7
20260507231538 52 277 5.2 13.9 0.00 0.00 0.00 51 1012.7
20260507230036 52 296 10.4 19.1 0.00 0.00 0.00 50 1012.8
20260507224543 52 276 7.8 18.2 0.00 0.00 0.00 52 1012.8
20260507223043 52 309 7.8 26.1 0.00 0.00 0.00 50 1012.8
20260507221538 52 319 11.3 20.9 0.00 0.00 0.00 51 1012.8
20260507220043 53 219 9.6 20.0 0.00 0.00 0.00 52 1012.7
20260507214539 52 296 9.6 20.0 0.00 0.00 0.00 54 1012.6
20260507213037 51 271 8.7 16.5 0.00 0.00 0.00 57 1012.4
20260507211537 51 288 7.0 15.6 0.00 0.00 0.00 58 1012.3
20260507210042 51 289 9.6 18.2 0.00 0.00 0.00 56 1012.4
20260507204544 52 290 7.8 17.4 0.00 0.00 0.00 56 1012.1
20260507203100 53 311 9.6 14.8 0.00 0.00 0.00 55 1012.1
20260507201542 52 290 7.0 16.5 0.00 0.00 0.00 52 1012.2
20260507200036 54 315 7.8 18.2 0.00 0.00 0.00 50 1012.2
20260507194537 54 294 7.8 16.5 0.00 0.00 0.00 51 1012.4
20260507193044 55 285 8.7 17.4 0.00 0.00 0.00 48 1012.3
20260507191545 55 310 8.7 16.5 0.00 0.00 0.00 46 1012.4
20260507190037 54 312 10.4 18.2 0.00 0.00 0.00 48 1012.4
20260507184537 55 302 6.1 13.9 0.00 0.00 0.00 52 1012.5
20260507183036 54 288 10.4 17.4 0.00 0.00 0.00 49 1012.4
20260507181537 54 311 9.6 18.2 0.00 0.00 0.00 51 1012.4
20260507180044 55 306 10.4 18.2 0.00 0.00 0.00 51 1012.3
20260507174545 55 304 10.4 16.5 0.00 0.00 0.00 51 1012.4
20260507173037 56 292 8.7 13.9 0.00 0.00 0.00 52 1012.4
20260507171538 54 254 7.0 12.2 0.00 0.00 0.00 50 1012.6
20260507170044 54 298 7.0 12.2 0.00 0.00 0.00 54 1012.5
20260507164537 55 313 6.1 13.0 0.00 0.00 0.00 50 1012.7
20260507163042 55 288 7.0 14.8 0.00 0.00 0.00 52 1012.7
20260507161539 55 295 7.0 11.3 0.00 0.00 0.00 55 1012.7
20260507160037 54 300 6.1 11.3 0.00 0.00 0.00 53 1012.8
20260507154537 54 242 3.5 11.3 0.00 0.00 0.00 51 1012.9
20260507153043 52 308 2.6 13.0 0.00 0.00 0.00 55 1013.1
20260507151543 54 294 2.6 9.6 0.00 0.00 0.00 56 1013.0
20260507150041 53 279 3.5 8.7 0.00 0.00 0.00 55 1013.1
20260507144540 53 298 0.9 7.8 0.00 0.00 0.00 51 1013.0
20260507143037 52 300 5.2 11.3 0.00 0.00 0.00 55 1013.0
20260507141537 53 324 3.5 8.7 0.00 0.00 0.00 54 1013.1
20260507140042 52 273 4.3 13.0 0.00 0.00 0.00 57 1013.3
20260507134547 52 290 5.2 8.7 0.00 0.00 0.00 59 1013.4
20260507133039 51 280 2.6 7.8 0.00 0.00 0.00 62 1013.5
20260507131552 50 262 5.2 9.6 0.00 0.00 0.00 66 1013.6
20260507130037 49 267 2.6 8.7 0.00 0.00 0.00 73 1013.6
20260507124537 47 299 3.5 7.8 0.00 0.00 0.00 77 1013.7
20260507123036 46 265 0.9 7.8 0.00 0.00 0.00 84 1013.6
20260507121538 44 336 0.9 2.6 0.00 0.00 0.00 89 1013.6
20260507120044 42 0 0.0 1.7 0.00 0.00 0.00 90 1013.7
20260507114538 41 0 0.0 2.6 0.00 0.01 0.00 91 1013.7
20260507113037 41 0 0.0 0.9 0.00 0.01 0.00 91 1013.6
20260507111537 40 0 0.0 0.0 0.00 0.01 0.00 91 1013.3
20260507110037 40 0 0.0 0.0 0.00 0.01 0.00 91 1013.3
20260507104544 40 0 0.0 0.0 0.00 0.01 0.00 91 1013.2
20260507103044 40 0 0.0 0.0 0.00 0.01 0.00 91 1013.0
20260507101538 39 0 0.0 0.9 0.00 0.01 0.00 91 1013.0
20260507100040 39 0 0.0 0.9 0.00 0.01 0.00 91 1013.1
20260507094539 39 0 0.0 2.6 0.00 0.05 0.00 91 1013.0
20260507093037 39 0 0.0 1.7 0.00 0.05 0.00 91 1013.0
20260507091549 38 0 0.0 0.9 0.00 0.05 0.00 91 1013.1
20260507090042 38 0 0.0 0.0 0.00 0.05 0.00 91 1013.1
20260507084541 38 0 0.0 0.0 0.00 0.10 0.00 91 1013.1
20260507083040 37 0 0.0 1.7 0.00 0.10 0.00 91 1013.2
20260507081544 37 0 0.0 0.0 0.00 0.10 0.00 90 1013.3
20260507080036 37 0 0.0 0.0 0.00 0.10 0.00 89 1013.3
20260507074552 37 0 0.0 0.0 0.00 0.15 0.00 89 1013.3
20260507073042 37 336 0.0 0.0 0.00 0.15 0.00 88 1013.4
20260507071541 38 0 0.0 0.0 0.00 0.15 0.00 87 1013.5
20260507070040 38 0 0.0 0.0 0.00 0.15 0.00 87 1013.7
20260507064541 38 0 0.0 0.0 0.00 0.19 0.00 86 1013.7
20260507063037 39 0 0.0 0.0 0.00 0.19 0.00 85 1013.9
20260507061537 39 0 0.0 0.0 0.00 0.19 0.00 85 1014.0
20260507060038 40 0 0.0 0.9 0.00 0.19 0.00 85 1014.1
20260507054547 40 0 0.0 1.7 0.00 0.23 0.00 85 1014.1
20260507053049 41 0 0.0 0.0 0.00 0.23 0.00 86 1014.3
20260507051539 41 0 0.0 1.7 0.00 0.23 0.00 86 1014.5
20260507050038 41 0 0.0 0.9 0.00 0.23 0.00 87 1014.5
20260507044547 41 336 0.0 1.7 0.00 0.29 0.00 87 1014.5
20260507043045 41 0 0.0 0.9 0.00 0.29 0.00 87 1014.5
20260507041542 41 0 0.0 0.0 0.00 0.29 0.00 87 1014.8
20260507040044 41 0 0.0 0.0 0.00 0.29 0.00 86 1014.9